Regional Weather Roundup
Issued by NWS Charleston, SC

Current Version | Previous Version | Graphics & Text | Print | Product List | Glossary On
Versions: 1 2 3 4 5 6 7 8 9 10 11 12 13 14 15 16 17 18 19 20 21 22 23 24 25 26 27 28 29 30 31 32 33 34 35 36 37 38 39 40 41 42 43 44 45 46 47 48 49 50
000
ASUS42 KCHS 221310
RWRCHS
REGIONAL WEATHER ROUNDUP
NATIONAL WEATHER SERVICE CHARLESTON SC
900 AM EDT FRI AUG 22 2014

NOTE: "FAIR" INDICATES FEW OR NO CLOUDS BELOW 12,000 FEET WITH NO
SIGNIFICANT WEATHER AND/OR OBSTRUCTIONS TO VISIBILITY.

NOT ALL STATIONS ARE QUALITY CONTROLLED BY THE NATIONAL
WEATHER SERVICE. USE DATA WITH CAUTION...ESPECIALLY
DEWPOINT OBSERVATIONS.

SCZ027-030-031-034>040-042>050-221400-
...SOUTH CAROLINA...

CITY           SKY/WX    TMP DP  RH WIND       PRES   REMARKS
N CHARLESTON   MOSUNNY   85  77  77 NW3       30.04R HX  95
WATERFRONT PRK   N/A     84 N/A N/A W3          N/A
FORT JOHNSON   NOT AVBL
MOUNT PLEASANT FAIR      84  79  84 W3        30.04S HX  96
JOHNS ISLAND   SUNNY     86  81  84 CALM      30.04S HX 102
PINOPOLIS        N/A     84  73  70 W7        29.97R HX  91
MONCKS CORNER    N/A     82  77  83 CALM      30.04R HX  91
SUMMERVILLE    FAIR      81  77  89 CALM      30.05S
BEAUFORT MCAS  MOSUNNY   85  75  72 N3        30.04R HX  93
BEAUFORT ARPT  FAIR      84  77  79 CALM      30.04R HX  94
HILTON HEAD IS SUNNY     86  73  66 W5        30.05R HX  93
GEORGETOWN     NOT AVBL
WALTERBORO     SUNNY     84  75  74 CALM      30.05S HX  92
ORANGEBURG     SUNNY     81  70  69 NW5       30.05R
BARNWELL       FAIR      81  72  74 W3        30.06R
AIKEN          FAIR      82  73  74 W5        30.10R
MANNING        FAIR      82  77  83 CALM      30.04R HX  91
KINGSTREE      NOT AVBL
COLUMBIA       PTSUNNY   81  69  67 W3        30.04R
SUMTER         MOSUNNY   83  71  66 NW6       30.03R
FLORENCE       MOSUNNY   82  72  71 CALM      30.04R
MYRTLE BEACH   SUNNY     82  73  74 W8        30.03R
N MYRTLE BEACH MOSUNNY   79  75  87 W3        30.03

$$

GAZ063-065-086>088-099>101-113>116-118-119-134-136>141-150-221400-
...GEORGIA...

CITY           SKY/WX    TMP DP  RH WIND       PRES   REMARKS
SAVANNAH ARPT  MOSUNNY   83  72  69 CALM      30.05R
HUNTER AAF     SUNNY     83  74  75 W2        30.03R
FORT STEWART   SUNNY     81  72  75 W3        30.04S
STATESBORO     NOT AVBL
SYLVANIA       SUNNY     80  75  84 NW3       30.08R
CLAXTON        FAIR      81  79  94 CALM      30.06S
THOMSON        SUNNY     79  77  92 CALM      30.12S
AUGUSTA-BUSH   SUNNY     82  71  69 N3        30.06R
AUGUSTA-DANIEL SUNNY     84  71  65 NW8       30.08R
SWAINSBORO     FAIR      82  77  83 NW5       30.08R HX  91
VIDALIA          N/A     81  73  78 CALM      30.08R
ALMA           SUNNY     80  72  76 NW5       30.07R
WAYCROSS       SUNNY     83  76  79 W3        30.07S HX  90
JESUP            N/A     81  77  89 CALM      30.07R
BRUNSWICK      SUNNY     81  72  74 W5        30.07R
SAINT SIMONS   SUNNY     81  73  76 W6        30.06R

$$

SCZ027-028-034-036>038-045-046-048>050-GAZ119-141-221400-
...LAKE AND SUPPLEMENTAL COASTAL OBSERVATIONS...

STATION/POSITION TIME  TEMP    WIND        PRES    WAVE   SWELL
                       AIR SEA DIR/SP/G            HT/PER HT/PER/DIR
                 (UTC) (F)     (DEG/KT/KT) (MB)    (FT/S) (FT/S/D)
UPR LAKE MARION  NOT AVBL
WINYAH BAY       1200   80     290/  5     1016.0S
LAKE MURRAY      1200   79     280/  4/  5 1016.9R
ACE BASIN NERRS  1200   78        CALM     1017.0S
FORT PULASKI     1300   82     290/  4/  4 1017.6R
SAPELO ISLAND    1200   79     270/  4     1018.0S

$$

ANZ835-935-AMZ111-154-330-350-352-354-374-450-454-472-221400-
...C-MAN AND BUOY OBSERVATIONS...

STATION/POSITION TIME  TEMP    WIND        PRES    WAVE   SWELL
                       AIR SEA DIR/SP/G            HT/PER HT/PER/DIR
                 (UTC) (F)     (DEG/KT/KT) (MB)    (FT/S) (FT/S/D)
FOLLY BEACH CMAN 1200   82     240/  2/  3 1017.2R
BUOY 41004       1300   84 84  280/  6/  8 1016.7R   2/ 9   2/ 9
BUOY 41008       1300   84 85  270/  6/  8 1017.4R   1/ 3
5E ST. MARYS GA  1300      82                N/A     1/ 8
FRYING PAN BUOY  NOT AVBL
BUOY 41025       1300   81     270/ 12/ 14 1014.7F   2/ 8   2/ 60/ 8
CAPE LOOKOUT NC  1200   82     260/  8/ 10 1015.7R
BUOY 41002       1209   82 82  260/ 12/ 16 1017.9R   2/ 5   2/110/ 8
BUOY 41010       1300   84 86  230/  8/ 10 1018.9R   2/ 6   2/140/ 6
BUOY 41012       NOT AVBL
ST AUGUSTINE FL  1300   81     290/  5/  7 1019.3R
CAPERS NEARSHORE 1200   85     280/  6/  8   N/A
FRIPP NEARSHORE  NOT AVBL


$$



USA.gov is the U.S. government's official web portal to all federal, state and local government web resources and services.